Station BDSP1 - 8546252 - Bridesburg, PA Image indicating link to RSS feed of recent meteorological observations for station BDSP1


Conditions at BDSP1 as of
(7:00 pm EDT)
2300 GMT on 07/18/2024:
     

Click on the graph icon in the table below to see a time series plot of the last five days of that observation.

5-day plot - Atmospheric Pressure Atmospheric Pressure (PRES):29.93 in
5-day plot - Pressure Tendency Pressure Tendency (PTDY):+0.00 in ( Steady )
5-day plot - Air Temperature Air Temperature (ATMP): 82.6 °F
5-day plot - Water Temperature Water Temperature (WTMP): 85.3 °F
NOS Water Level Observation Network Water Level
Previous observations
TIME
(EDT)
5-day plot - Wind Direction
WDIR
 
5-day plot - Wind Speed
WSPD
kts
5-day plot - Wind Gust
GST
kts
5-day plot - Wave Height
WVHT
ft
5-day plot - Dominant Wave Period
DPD
sec
5-day plot - Average Wave Period
APD
sec
5-day plot - Mean Wave Direction
MWD
 
5-day plot - Atmospheric Pressure
PRES
in
5-day plot - Pressure Tendency
PTDY
in
5-day plot - Air Temperature
ATMP
°F
5-day plot - Water Temperature
WTMP
°F
5-day plot - Dew Point
DEWP
°F
5-day plot - Salinity
SAL
psu
5-day plot - Visibility
VIS
nmi
5-day plot - Tide (above MLLW)
TIDE
ft
2024-07-18 06:54 pm-------29.93- 82.8 85.3----
2024-07-18 06:48 pm-------29.93- 82.8 85.1----
2024-07-18 06:42 pm-------29.92- 82.8 85.3----
2024-07-18 06:36 pm-------29.92- 83.1 85.1----
2024-07-18 06:30 pm-------29.92- 82.9 85.3----
2024-07-18 06:24 pm-------29.92- 82.9 84.9----
2024-07-18 06:18 pm-------29.92- 82.8 84.9----
2024-07-18 06:12 pm-------29.92- 83.1 85.1----
2024-07-18 06:06 pm-------29.92- 82.9 85.1----
2024-07-18 06:00 pm-------29.92-0.02 83.3 85.1----
2024-07-18 05:54 pm-------29.92- 83.1 84.9----
2024-07-18 05:48 pm-------29.93- 82.9 85.1----
2024-07-18 05:42 pm-------29.93- 82.9 85.1----
2024-07-18 05:36 pm-------29.93- 82.9 85.1----
2024-07-18 05:30 pm-------29.93- 82.6 85.1----
2024-07-18 05:24 pm-------29.93- 82.6 85.3----
2024-07-18 05:18 pm-------29.93- 82.8 85.3----
2024-07-18 05:12 pm-------29.93- 83.1 85.3----
2024-07-18 05:06 pm-------29.93- 82.9 85.3----
2024-07-18 05:00 pm-------29.93+0.00 83.1 85.3----
2024-07-18 04:54 pm-------29.93- 82.9 85.3----
2024-07-18 04:48 pm-------29.93- 83.3 85.5----
2024-07-18 04:42 pm-------29.93- 83.3 85.5----
2024-07-18 04:36 pm-------29.93- 83.5 85.5----
2024-07-18 04:30 pm-------29.93- 83.8 85.5----
2024-07-18 04:24 pm-------29.93- 83.5 85.5----
2024-07-18 04:18 pm-------29.93- 83.7 85.3----
2024-07-18 04:12 pm-------29.93- 83.7 85.3----
2024-07-18 04:06 pm-------29.93- 84.0 85.5----
2024-07-18 04:00 pm-------29.93+0.00 84.0 85.5----
2024-07-18 03:54 pm-------29.93- 83.8 85.5----
2024-07-18 03:48 pm-------29.94- 83.7 85.5----
2024-07-18 03:42 pm-------29.94- 83.3 85.5----
2024-07-18 03:36 pm-------29.94- 83.5 85.3----
2024-07-18 03:30 pm-------29.94- 83.3 85.3----
2024-07-18 03:24 pm-------29.94- 83.3 85.3----
2024-07-18 03:18 pm-------29.94- 83.7 85.3----
2024-07-18 03:12 pm-------29.94- 83.3 85.1----
2024-07-18 03:06 pm-------29.94- 83.1 85.1----
2024-07-18 03:00 pm-------29.94+0.00 83.5 85.1----
2024-07-18 02:54 pm-------29.94- 83.3 85.1----
2024-07-18 02:48 pm-------29.94- 83.3 85.1----
2024-07-18 02:42 pm-------29.94- 82.8 85.1----
2024-07-18 02:36 pm-------29.94- 83.1 85.1----
2024-07-18 02:30 pm-------29.93- 83.5 85.1----
2024-07-18 02:24 pm-------29.93- 82.8 85.1----
2024-07-18 02:18 pm-------29.93- 83.8 85.1----
2024-07-18 02:12 pm-------29.93- 83.5 84.9----
2024-07-18 02:06 pm-------29.93- 82.8 84.9----
2024-07-18 02:00 pm-------29.93+0.00 83.1 84.7----
2024-07-18 01:54 pm-------29.94- 82.8 84.9----
2024-07-18 01:48 pm-------29.94-- 84.9----
2024-07-18 01:42 pm-------29.93-- 84.9----
2024-07-18 01:36 pm-------29.93-- 84.9----
2024-07-18 01:30 pm-------29.93- 82.2 84.9----
2024-07-18 01:24 pm-------29.93- 82.4 84.7----
2024-07-18 01:18 pm-------29.93- 82.6 84.9----
2024-07-18 01:12 pm-------29.93- 82.2 84.9----
2024-07-18 01:06 pm-------29.93- 82.9 84.9----
2024-07-18 01:00 pm-------29.93+0.00 82.4 84.9----
2024-07-18 12:54 pm-------29.92- 81.9 84.9----
2024-07-18 12:48 pm-------29.93- 82.6 84.9----
2024-07-18 12:42 pm-------29.93- 82.2 84.7----
2024-07-18 12:36 pm-------29.93- 81.9 84.7----
2024-07-18 12:30 pm-------29.93- 82.0 84.7----
2024-07-18 12:24 pm-------29.93- 81.5 84.7----
2024-07-18 12:18 pm-------29.93- 81.1 84.7----
2024-07-18 12:12 pm-------29.93- 81.1 84.7----
2024-07-18 12:06 pm-------29.94- 80.8 84.7----
2024-07-18 12:00 pm-------29.94+0.03 80.8 84.7----
2024-07-18 11:54 am-------29.94- 80.8 84.7----
2024-07-18 11:48 am-------29.94- 80.8 84.7----
2024-07-18 11:42 am-------29.94- 80.6 84.7----
2024-07-18 11:36 am-------29.94- 81.1 84.7----
2024-07-18 11:30 am-------29.93- 80.8 84.7----
2024-07-18 11:24 am-------29.93- 80.2 84.7----
2024-07-18 11:18 am-------29.93- 80.4 84.7----
2024-07-18 11:12 am-------29.93- 79.7 84.7----
2024-07-18 11:06 am-------29.94- 79.3 84.7----
2024-07-18 11:00 am-------29.93+0.04 79.2 84.7----
2024-07-18 10:54 am-------29.93- 79.3 84.7----
2024-07-18 10:48 am-------29.93- 78.4 84.7----
2024-07-18 10:42 am-------29.93- 78.3 84.7----
2024-07-18 10:36 am-------29.93- 78.1 84.7----
2024-07-18 10:30 am-------29.93- 77.7 84.7----
2024-07-18 10:24 am-------29.93- 77.4 84.7----
2024-07-18 10:18 am-------29.93- 77.0 84.7----
2024-07-18 10:12 am-------29.93- 77.2 84.7----
2024-07-18 10:06 am-------29.93- 77.0 84.7----
2024-07-18 10:00 am-------29.93+0.05 76.8 84.7----
2024-07-18 09:54 am-------29.93- 76.5 84.7----
2024-07-18 09:48 am-------29.92- 76.5 84.7----
2024-07-18 09:42 am-------29.92- 76.1 84.9----
2024-07-18 09:36 am-------29.92- 75.6 84.9----
2024-07-18 09:30 am-------29.92- 75.7 84.9----
2024-07-18 09:24 am-------29.91- 75.7 84.9----
2024-07-18 09:18 am-------29.91- 75.4 84.9----
2024-07-18 09:12 am-------29.91- 75.0 84.9----
2024-07-18 09:06 am-------29.91- 75.0 84.9----
2024-07-18 09:00 am-------29.91+0.04 74.8 84.9----
2024-07-18 08:54 am-------29.91- 74.7 84.9----
2024-07-18 08:48 am-------29.90- 74.7 84.9----
2024-07-18 08:42 am-------29.90- 74.7 84.9----
2024-07-18 08:36 am-------29.91- 74.7 85.1----
2024-07-18 08:30 am-------29.91- 74.7 85.1----
2024-07-18 08:24 am-------29.91- 74.8 85.1----
2024-07-18 08:18 am-------29.91- 74.7 85.1----
2024-07-18 08:12 am-------29.90- 74.8 85.1----
2024-07-18 08:06 am-------29.90- 75.0 85.1----
2024-07-18 08:00 am-------29.90+0.06 75.0 85.1----
2024-07-18 07:54 am-------29.89- 75.0 85.1----
2024-07-18 07:48 am-------29.89-- 85.1----
2024-07-18 07:42 am-------29.89-- 85.1----
2024-07-18 07:36 am-------29.89-- 85.1----
2024-07-18 07:30 am-------29.89- 74.8 84.9----
2024-07-18 07:24 am-------29.88- 74.7 84.9----
2024-07-18 07:18 am-------29.88- 74.8 84.9----
2024-07-18 07:12 am-------29.88- 74.7 84.9----
2024-07-18 07:06 am-------29.88- 74.7 84.9----
2024-07-18 07:00 am-------29.87+0.03 74.5 84.9----
2024-07-18 06:54 am-------29.87- 74.3 84.9----
2024-07-18 06:48 am-------29.88- 74.3 84.7----
2024-07-18 06:42 am-------29.87- 74.3 84.9----
2024-07-18 06:36 am-------29.87- 74.3 84.9----
2024-07-18 06:30 am-------29.87- 74.1 84.7----
2024-07-18 06:24 am-------29.86- 73.9 84.7----
2024-07-18 06:18 am-------29.86- 73.9 84.7----
2024-07-18 06:12 am-------29.86- 73.8 84.7----
2024-07-18 06:06 am-------29.86- 73.8 84.6----
2024-07-18 06:00 am-------29.86+0.04 73.6 84.6----
2024-07-18 05:54 am-------29.86- 73.6 84.7----
2024-07-18 05:48 am-------29.86- 73.8 84.6----
2024-07-18 05:42 am-------29.86- 73.8 84.6----
2024-07-18 05:36 am-------29.86- 73.8 84.7----
2024-07-18 05:30 am-------29.85- 73.8 84.6----
2024-07-18 05:24 am-------29.85- 73.9 84.4----
2024-07-18 05:18 am-------29.85- 74.1 84.2----
2024-07-18 05:12 am-------29.85- 74.1 84.6----
2024-07-18 05:06 am-------29.85- 74.5 84.4----
2024-07-18 05:00 am-------29.84+0.02 74.5 84.2----
2024-07-18 04:54 am-------29.84- 74.5 84.0----
2024-07-18 04:48 am-------29.84-- 84.4----
2024-07-18 04:42 am-------29.84-- 84.6----
2024-07-18 04:36 am-------29.84-- 84.4----
2024-07-18 04:30 am-------29.84- 74.8 84.0----
2024-07-18 04:24 am-------29.84- 74.8 84.4----
2024-07-18 04:18 am-------29.84- 74.8 84.4----
2024-07-18 04:12 am-------29.84- 75.0 84.4----
2024-07-18 04:06 am-------29.84- 75.2 84.4----
2024-07-18 04:00 am-------29.84+0.01 75.2 84.0----
2024-07-18 03:54 am-------29.84- 75.2 84.0----
2024-07-18 03:48 am-------29.84- 75.2 83.8----
2024-07-18 03:42 am-------29.84- 75.4 84.4----
2024-07-18 03:36 am-------29.84- 75.4 84.4----
2024-07-18 03:30 am-------29.83- 75.4 84.0----
2024-07-18 03:24 am-------29.83- 75.2 84.0----
2024-07-18 03:18 am-------29.83- 75.4 84.4----
2024-07-18 03:12 am-------29.83- 75.7 84.4----
2024-07-18 03:06 am-------29.83- 75.9 84.0----
2024-07-18 03:00 am-------29.83+0.00 75.9 84.4----
2024-07-18 02:54 am-------29.83- 75.9 84.0----
2024-07-18 02:48 am-------29.83- 75.9 84.4----
2024-07-18 02:42 am-------29.83- 75.7 84.4----
2024-07-18 02:36 am-------29.83- 75.6 84.2----
2024-07-18 02:30 am-------29.83- 75.7 84.2----
2024-07-18 02:24 am-------29.83- 75.9 84.6----
2024-07-18 02:18 am-------29.83- 76.1 84.2----
2024-07-18 02:12 am-------29.83- 76.3 84.2----
2024-07-18 02:06 am-------29.82- 76.5 84.0----
2024-07-18 02:00 am-------29.82-0.03 76.8 84.4----
2024-07-18 01:54 am-------29.82- 76.8 84.4----
2024-07-18 01:48 am-------29.82- 76.6 84.2----
2024-07-18 01:42 am-------29.82- 76.6 84.0----
2024-07-18 01:36 am-------29.82- 76.6 84.0----
2024-07-18 01:30 am-------29.82- 76.5 84.2----
2024-07-18 01:24 am-------29.82- 76.5 84.6----
2024-07-18 01:18 am-------29.82- 76.6 84.6----
2024-07-18 01:12 am-------29.82- 76.6 84.6----
2024-07-18 01:06 am-------29.83- 76.5 84.6----
2024-07-18 01:00 am-------29.83-0.03 76.5 84.6----
2024-07-18 12:54 am-------29.83- 76.3 84.7----
2024-07-18 12:48 am-------29.83- 76.3 84.7----
2024-07-18 12:42 am-------29.83- 76.3 84.7----
2024-07-18 12:36 am-------29.83- 76.5 84.7----
2024-07-18 12:30 am-------29.83- 76.3 84.7----
2024-07-18 12:24 am-------29.83- 76.3 84.7----
2024-07-18 12:18 am-------29.83- 76.5 84.9----
2024-07-18 12:12 am-------29.83- 76.3 84.9----
2024-07-18 12:06 am-------29.83- 76.3 84.9----
2024-07-18 12:00 am-------29.83+0.00 76.3 84.9----
2024-07-17 11:54 pm-------29.83- 76.1 84.9----
2024-07-17 11:48 pm-------29.83- 76.5 84.9----
2024-07-17 11:42 pm-------29.83- 76.1 84.9----
2024-07-17 11:36 pm-------29.83- 76.3 84.9----
2024-07-17 11:30 pm-------29.83- 76.1 84.9----
2024-07-17 11:24 pm-------29.84- 76.3 84.9----
2024-07-17 11:18 pm-------29.85- 76.5 84.9----
2024-07-17 11:12 pm-------29.85- 76.3 84.9----
2024-07-17 11:06 pm-------29.85- 76.3 84.9----
2024-07-17 11:00 pm-------29.85+0.06 76.3 84.9----
2024-07-17 10:54 pm-------29.85- 76.1 84.9----
2024-07-17 10:48 pm-------29.85- 76.1 84.9----
2024-07-17 10:42 pm-------29.85- 75.9 84.9----
2024-07-17 10:36 pm-------29.85- 75.9 84.9----
2024-07-17 10:30 pm-------29.86- 76.1 84.9----
2024-07-17 10:24 pm-------29.86- 76.1 84.9----
2024-07-17 10:18 pm-------29.86- 76.3 84.9----
2024-07-17 10:12 pm-------29.86- 76.1 85.1----
2024-07-17 10:06 pm-------29.86- 76.3 85.1----
2024-07-17 10:00 pm-------29.86- 76.3 85.1----
2024-07-17 09:54 pm-------29.85- 76.3 85.1----
2024-07-17 09:48 pm-------29.85- 76.3 85.1----
2024-07-17 09:42 pm-------29.85- 76.3 85.1----
2024-07-17 09:36 pm-------29.85- 75.9 85.1----
2024-07-17 09:30 pm-------29.85- 76.1 85.1----
2024-07-17 09:24 pm-------29.85- 76.6 85.1----
2024-07-17 09:18 pm-------29.84- 76.6 85.3----
2024-07-17 09:12 pm-------29.84- 76.6 85.3----
2024-07-17 09:06 pm-------29.84- 76.6 85.3----
2024-07-17 09:00 pm-------29.84- 77.7 85.3----
2024-07-17 08:54 pm-------29.83- 82.4 85.3----
2024-07-17 08:48 pm-------29.81- 87.4 85.3----
2024-07-17 08:42 pm-------29.80- 87.4 85.3----
2024-07-17 08:36 pm-------29.80- 87.6 85.3----
2024-07-17 08:30 pm-------29.80- 87.6 85.3----
2024-07-17 08:24 pm-------29.80- 87.8 85.3----
2024-07-17 08:18 pm-------29.80- 88.0 85.3----
2024-07-17 08:12 pm-------29.80- 87.8 85.3----
2024-07-17 08:06 pm-------29.80- 88.0 85.3----
2024-07-17 08:00 pm-------29.79+0.01 88.2 85.3----
2024-07-17 07:54 pm-------29.79- 88.2 85.3----
2024-07-17 07:48 pm-------29.78- 88.2 85.3----
2024-07-17 07:42 pm-------29.78- 88.3 85.3----
2024-07-17 07:36 pm-------29.77- 88.5 85.3----
2024-07-17 07:30 pm-------29.77- 88.9 85.3----
2024-07-17 07:24 pm-------29.77- 89.2 85.5----
2024-07-17 07:18 pm---------- 85.5----
2024-07-17 07:12 pm---------- 85.5----
2024-07-17 07:06 pm---------- 85.5----
2024-07-17 07:00 pm---------- 85.5----
2024-07-17 06:54 pm---------- 85.5----